www.pogodaiklimat.ru

Погода и климат >> Архив погоды >> Индия >> Ambikapur


ПОГОДА в Ambikapur

  • Прогноз погоды в Ambikapur
  • Монитор погоды в Ambikapur
  • Климат города

АРХИВ ПОГОДЫ в Ambikapur

Время (UTC), дата Ветер
(напр.,м/с)
 
Видим.   Явления Облачность Т
(С)
Тd
(С)
f
(%)
Тe
(С)
Тes
(С)
Комфортность P
(гПа)
Po
(гПа)
Тmin
(С)
Tmax
(С)
R
(мм)
R24
(мм)
S
(см)
21 10.07 штиль 0 4000 м 8/4 750 м
[Sc Ac trans]
+26.0 +24.6 92 +37 +37 очень
душно
998.4 932.0
00 11.07 штиль 0 4000 м 3/0
[Ci fib]
+25.4 +24.3 94 +35 +35 очень
душно
998.0 931.6
03 11.07 штиль 0 2000 м мгла {дождь} 8/4 750 м
[Sc Ac trans]
+26.0 +24.3 90 +36 +41 очень
душно
998.7 932.3 +24.4 0.2
06 11.07 штиль 0 4000 м 6/3 750 м
[Sc Ac trans]
+28.4 +23.8 76 +39 +54 опасность
солнечного
удара
998.3 932.5
09 11.07 СВ 1 4000 м гроза, ливневой дождь 8/5 750 м
[Cb cap Ac trans]
+31.0 +24.3 68 +43 +49 опасность
перегрева
995.1 930.1
12 11.07 В 1 4000 м слабый дождь {гроза} 8/4 750 м
[Cu Sc Ac trans]
+28.4 +25.1 82 +41 +42 опасность
перегрева
994.9 929.3 +30.6 3
15 11.07 штиль 0 4000 м зарница {гроза} 9/5 750 м
[Cb cap Ac trans]
+27.0 +24.8 88 +39 +39 очень
душно
997.3 931.1 3
18 11.07 штиль 0 4000 м 6/4 750 м
[Sc Ac trans]
+26.4 +24.7 90 +37 +37 очень
душно
997.8 931.6 3
21 11.07 штиль 0 4000 м 6/4 750 м
[Sc Ac trans]
+25.8 +24.4 92 +36 +36 очень
душно
997.1 930.8 3
00 12.07 штиль 0 2000 м мгла 9/5 600 м
[Sc Ac trans]
+25.6 +25.0 96 +36 +36 очень
душно
996.5 930.2 3
03 12.07 штиль 0 4000 м мгла 9/5 600 м
[Sc Ac trans]
+26.6 +25.2 92 +38 +42 очень
душно
997.5 931.3 +25.0 3
06 12.07 штиль 0 4000 м 8/4 600 м
[Sc Ac trans]
+29.6 +25.2 77 +43 +54 опасность
перегрева
996.7 931.1
09 12.07 штиль 0 4000 м гроза без осадков {дождь} 8/4 600 м
[Cb cap Ac trans]
+29.0 +26.8 88 +45 +52 опасность
перегрева
994.7 929.1 3
12 12.07 штиль 0 2000 м слабый дождь {гроза} 10/6 300 м
[Frnb As op]
+27.6 +24.5 83 +39 +39 очень
душно
994.9 929.1 +29.7 3
15 12.07 штиль 0 4000 м {гроза, дождь} 9/5 600 м
[Sc Ac trans]
+26.2 +25.4 95 +38 +38 очень
душно
996.1 930.0 4
18 12.07 штиль 0 4000 м 9/4 750 м
[Sc Ac trans]
+25.8 +25.2 96 +37 +37 очень
душно
997.6 931.2 4
21 12.07 штиль 0 4000 м 9/5 750 м
[Sc Ac trans]
+25.6 +25.0 96 +36 +36 очень
душно
996.6 930.3 4
00 13.07 штиль 0 2000 м мгла 9/5 750 м
[Sc Ac trans]
+25.6 +25.0 96 +36 +36 очень
душно
996.4 930.1 4
03 13.07 штиль 0 2000 м мгла 8/4 600 м
[Sc Ac trans]
+26.6 +25.2 92 +38 +43 очень
душно
997.1 931.0 +25.0 4
06 13.07 штиль 0 4000 м 8/5 600 м
[Cu Sc Ac trans]
+29.8 +24.2 72 +42 +51 опасность
перегрева
996.4 931.0
09 13.07 Ю 1 4000 м {дождь} 8/5 600 м
[Cu Sc Ac trans]
+30.2 +24.4 71 +42 +48 опасность
перегрева
994.5 929.3 3
12 13.07 З 1 4000 м {гроза, дождь} 9/5 600 м
[Cb cap Ac trans]
+27.4 +24.6 85 +39 +39 очень
душно
994.9 929.1 +27.9 3
15 13.07 штиль 0 4000 м зарница 8/5 600 м
[Cb cap Ac trans]
+26.2 +24.5 90 +37 +37 очень
душно
997.3 931.1 3
18 13.07 штиль 0 4000 м в посл. час дождь {гроза} 6/4 600 м
[Sc Ac trans]
+26.0 +24.6 92 +37 +37 очень
душно
998.1 931.7 5
21 13.07 штиль 0 4000 м {дождь} 8/3 600 м
[Sc Ac trans]
+25.4 +24.3 94 +35 +35 очень
душно
996.6 930.3 5
00 14.07 штиль 0 4000 м {дождь} 9/5 600 м
[Sc Ac trans]
+24.6 +24.0 96 +34 +34 очень
душно
996.9 930.4 10
03 14.07 штиль 0 4000 м 3/3 750 м
[Sc]
+26.8 +24.6 88 +38 +47 очень
душно
996.8 930.7 +23.9 10
06 14.07 штиль 0 4000 м 8/5 750 м
[Sc Ac trans]
+28.8 +24.6 78 +41 +50 опасность
перегрева
996.3 930.7
09 14.07 штиль 0 4000 м гроза, ливневой дождь 9/5 600 м
[Cb cap Ac trans]
+29.0 +24.8 78 +41 +47 опасность
перегрева
994.9 929.3 2
12 14.07 штиль 0 4000 м {гроза, дождь} 8/5 600 м
[Sc Ac trans]
+26.6 +26.3 98 +40 +41 очень
душно
994.4 928.7 +29.2 10
15 14.07 штиль 0 4000 м 3/3 750 м
[Sc]
+26.4 +25.6 95 +39 +39 очень
душно
996.6 930.5 10
18 14.07 штиль 0 4000 м 3/0
[Ci fib]
+25.8 +25.0 95 +37 +37 очень
душно
997.5 931.1 10
21 14.07 штиль 0 4000 м 8/4 600 м
[Sc Ac trans]
+25.6 +24.8 95 +36 +36 очень
душно
996.6 930.3 10
00 15.07 штиль 0 4000 м 8/4 600 м
[Sc Ac trans]
+25.4 +24.6 95 +36 +36 очень
душно
996.2 929.9 10
03 15.07 штиль 0 4000 м 4/4 750 м
[Sc]
+28.2 +24.9 82 +40 +49 очень
душно
995.8 930.2 +24.7 10
06 15.07 С 1 4000 м 6/5 600 м
[Cu Sc Ac trans]
+28.6 +24.7 79 +41 +52 опасность
перегрева
995.8 930.2
09 15.07 штиль 0 4000 м {дождь} 6/4 600 м
[Cu Sc Ac trans]
+29.0 +24.6 77 +41 +51 опасность
перегрева
994.6 929.0 0.3
12 15.07 Ю 1 4000 м {гроза, дождь} 5/4 600 м
[Cu Sc Ac trans]
+26.0 +25.2 95 +37 +38 очень
душно
993.5 927.4 +31.0 10
15 15.07 штиль 0 4000 м 5/3 750 м
[Sc Ac trans]
+26.8 +25.7 94 +40 +40 очень
душно
995.8 929.7 10
18 15.07 штиль 0 4000 м {гроза, дождь} 8/4 600 м
[Sc Ac trans]
+25.0 +24.7 98 +35 +35 очень
душно
997.2 930.7 11
21 15.07 штиль 0 4000 м 3/0
[Ac trans]
+24.8 +24.2 96 +34 +34 очень
душно
995.9 929.4 11
00 16.07 штиль 0 4000 м 9/4 600 м
[Sc Ac trans]
+25.2 +24.6 96 +35 +35 очень
душно
995.6 929.3 11
03 16.07 штиль 0 4000 м {дождь} 8/5 600 м
[Sc Ac trans]
+25.6 +24.8 95 +36 +40 очень
душно
996.6 930.3 +24.2 12
06 16.07 Ю 1 4000 м 6/5 600 м
[Cu Sc Ac trans]
+28.4 +24.5 79 +40 +51 опасность
солнечного
удара
995.3 929.7
09 16.07 ЮВ 2 4000 м 8/5 600 м
[Cu Sc Ac trans]
+30.8 +24.7 70 +44 +49 опасность
перегрева
993.1 928.1
12 16.07 ЮВ 2 4000 м сильная гроза, ливневой дождь 10/5 600 м
[Cb cap As op]
+29.2 +25.3 80 +43 +43 опасность
перегрева
993.2 927.9 +30.9 1
15 16.07 штиль 0 4000 м зарница {гроза, дождь} 5/4 600 м
[Cb cap Ac trans]
+25.2 +24.9 98 +36 +36 очень
душно
995.4 929.1 25
18 16.07 штиль 0 4000 м 6/4 750 м
[Sc Ac trans]
+25.0 +24.7 98 +35 +35 очень
душно
996.2 929.7 25
21 16.07 штиль 0 4000 м 8/5 750 м
[Sc Ac trans]
+24.8 +24.2 96 +34 +34 очень
душно
995.2 928.7 25
00 17.07 В 1 4000 м слабый дождь 10/8 360 м
[Frnb As op]
+24.8 +24.5 98 +35 +35 очень
душно
995.1 928.7 27
03 17.07 СВ 1 2000 м мгла {дождь, морось} 9/5 360 м
[Frnb Ac trans]
+25.4 +24.8 96 +36 +39 очень
душно
995.5 929.2 +23.9 27
06 17.07 В 2 2000 м гроза, ливневой дождь 10/6 600 м
[Cb cap As op]
+27.0 +24.8 88 +39 +40 очень
душно
995.3 929.2 0.3
09 17.07 С 1 4000 м слабый дождь {гроза} 9/5 600 м
[Cu Sc Ac trans]
+27.4 +25.5 89 +40 +45 очень
душно
994.3 928.6 3
12 17.07 штиль 0 4000 м {дождь} 9/5 600 м
[Sc Ac trans]
+27.6 +24.2 82 +39 +39 очень
душно
993.2 927.5 +27.9 3
15 17.07 ЮВ 1 4000 м 5/4 600 м
[Sc Ac trans]
+26.0 +24.6 92 +37 +37 очень
душно
994.8 928.7 3
18 17.07 штиль 0 4000 м слабый дождь 10/6 600 м
[Sc As op]
+25.6 +24.5 94 +36 +36 очень
душно
995.7 929.4 4

 

Местоположение метеостанции Ambikapur (Chhattisgarh, Индия): широта 23.17 долгота 83.25 высота над уровнем моря 611 м.

В архиве по умолчанию представлена погода в Ambikapur за последнюю неделю. Архивные данные за месяц целиком и за предыдущие месяцы, начиная с января 2011 года, Вы можете получить, выбрав интересующий диапазон дат из раскрывающегося списка и нажав кнопку "Ввод!".


*Определитесь, кто Вы:
робот инопланетянин человек

Внимание! Время в таблицах - всемирное. Для получения местного времени необходимо прибавить поправку, которая в Ambikapur равна 5.5 ч.

Смотрите также архив погоды в соседних городах и на ближайших метеорологических станциях:

Погода в Daltonganj (Jharkhand, Индия) (129 км)
Погода в Sundargarh (Orissa, Индия) (142 км)
Погода в Pendra Road (Chhattisgarh, Индия) (145 км)
Погода в Bilaspur (Chhattisgarh, Индия) (163 км)
Погода в Jharsuguda (Orissa, Индия) (163 км)
Погода в Hirakud (Orissa, Индия) (194 км)
Погода в Raipur Airport (Chhattisgarh, Индия) (195 км)
Погода в Sidhi (Madhya Pradesh, Индия) (198 км)
Погода в Sambalpur (Orissa, Индия) (203 км)
Погода в Ranchi (Jharkhand, Индия) (212 км)

Пояснения к столбцам:

Ветер - указаны скорость ветра в м/с - средняя за 10 мин, порывы в срок и между сроками (в фигурных скобках) и направление, откуда дует ветер: С - северный, СВ - северо-восточный, В - восточный, ЮВ - юго-восточный, Ю - южный, ЮЗ - юго-западный, З - западный, СЗ - северо-западный.
Видимость - горизонтальная дальность видимости в метрах или километрах. При видимости от 1 до 10 км при отсутствии осадков обычно наблюдается дымка, при ухудшении видимости до 1 км и менее - туман. В сухую погоду видимость может ухудшаться дымом, пылью или мглою.
Явления - указаны атмосферные явления, наблюдавшиеся в срок или в последний час перед сроком; фигурными скобками обозначены явления, наблюдавшиеся между сроками (за 1-3 часа до срока); квадратными скобками обозначены град или гололедные отложения с указанием их диаметра в мм.
Облачность - указаны через наклонную черту общая и нижняя облачность в баллах и высота нижней границы облаков в метрах; квадратными скобками обозначены формы облаков: Ci - перистые, Cs - перисто-слоистые, Cc - перисто-кучевые, Ac - высококучевые, As - высокослоистые, Sc - слоисто-кучевые, Ns - слоисто-дождевые, Cu - кучевые, Cb - кучево-дождевые. Подробнее классификацию облаков см. в Атласе облаков (PDF).
T - Температура воздуха - температура, измеренная на высоте 2 м над землей.
Td - Температура точки росы - температура, при понижении до которой содержащийся в воздухе водяной пар достигнет насыщения.
f - Относительная влажность воздуха - влажноcть воздуха, измеренная на высоте 2 м над землей.
Te - Эффективная температура - температура, которую ощущает одетый по сезону человек в тени. Характеристика душности погоды. При расчете учитывается влияние влажности воздуха и скорости ветра на теплоощущения человека.
Tes - Эффективная температура на солнце - температура, которую ощущает человек, с поправкой на солнечный нагрев. Характеристика знойности погоды. Зависит от высоты солнца над горизонтом, облачности и скорости ветра. Ночью, в пасмурную погоду, а также при ветре 12 м/с и более поправка равна нулю.
P - Атмосферное давление - приведенное к уровню моря атмосферное давление.
Po - Атмосферное давление - измеренное на уровне метеостанции атмосферное давление.
Tmin - Минимальная температура - минимум температуры воздуха на высоте 2 м над землей.
Tmax - Максимальная температура - максимум температуры воздуха на высоте 2 м над землей.
R - Количество осадков - Количество выпавших осадков за период времени, мм. При наведении курсора мыши на число - период времени, за который выпало указанное количество осадков.
R24 - Количество осадков - Количество выпавших осадков за 24 часа, мм.
S - Снежный покров - Высота снежного покрова, см. При наведении курсора мыши на число - состояние снежного покрова и степень покрытия местности в баллах.